When you browse on this site, cookies collect data to enhance your experience and personalize the content and advertising you see.
Visit our Privacy Policy to learn more. By continuing to use the site, you agree to this use of cookies and data.
  • en Suisse
  • Liste des pays
  • À 7 jours
  • Température de l'eau
  • Carte satellitaire
  • Carte météo
  • Widgets météo
  • user-avatar
    Se connecter

    Météo par heure à Balanny

    Ce jour, 20 Novembre, Mardi

    Heure Température Précipitation Vent Pression Humidité
    00:00 -2°C° 0.1 mm 2 m/s 753 mmHg 96%
    01:00 -2°C° 0.1 mm 2 m/s 753 mmHg 96%
    02:00 -2°C° 0.1 mm 2 m/s 753 mmHg 97%
    03:00 -2°C° 0.1 mm 2 m/s 753 mmHg 97%
    04:00 -2°C° 0 mm 2 m/s 753 mmHg 97%
    05:00 -2°C° 0.1 mm 2 m/s 753 mmHg 97%
    06:00 -3°C° 0.1 mm 2 m/s 752 mmHg 97%
    07:00 -3°C° 0.1 mm 2 m/s 752 mmHg 97%
    08:00 -3°C° 0.1 mm 2 m/s 752 mmHg 96%
    09:00 -2°C° 0.1 mm 2 m/s 752 mmHg 95%
    10:00 -2°C° 0 mm 2 m/s 752 mmHg 94%
    11:00 -2°C° 0.1 mm 2 m/s 752 mmHg 92%
    12:00 -2°C° 0.1 mm 2 m/s 752 mmHg 91%
    13:00 -2°C° 0.1 mm 2 m/s 751 mmHg 90%
    14:00 -2°C° 0 mm 2 m/s 751 mmHg 90%
    15:00 -2°C° 0 mm 2 m/s 751 mmHg 91%
    16:00 -2°C° 0 mm 2 m/s 750 mmHg 92%
    17:00 -3°C° 0 mm 2 m/s 750 mmHg 92%
    18:00 -3°C° 0 mm 2 m/s 750 mmHg 92%
    19:00 -3°C° 0 mm 2 m/s 750 mmHg 92%
    20:00 -3°C° 0 mm 2 m/s 749 mmHg 92%
    21:00 -4°C° 0 mm 2 m/s 749 mmHg 92%
    22:00 -4°C° 0 mm 2 m/s 748 mmHg 92%
    23:00 -5°C° 0 mm 3 m/s 748 mmHg 91%

    Demain, 21 Novembre, Mercredi

    Heure Température Précipitation Vent Pression Humidité
    00:00 -5°C° 0 mm 3 m/s 748 mmHg 91%
    01:00 -5°C° 0 mm 3 m/s 747 mmHg 90%
    02:00 -7°C° 0 mm 4 m/s 747 mmHg 90%
    03:00 -7°C° 0 mm 4 m/s 746 mmHg 90%
    04:00 -7°C° 0 mm 4 m/s 745 mmHg 90%
    05:00 -7°C° 0.1 mm 5 m/s 745 mmHg 90%
    06:00 -7°C° 0.1 mm 5 m/s 744 mmHg 89%
    07:00 -6°C° 0.1 mm 6 m/s 744 mmHg 88%
    08:00 -6°C° 0.4 mm 6 m/s 743 mmHg 89%
    09:00 -6°C° 0.4 mm 6 m/s 742 mmHg 90%
    10:00 -6°C° 0.4 mm 6 m/s 742 mmHg 90%
    11:00 -6°C° 0.3 mm 6 m/s 741 mmHg 89%
    12:00 -6°C° 0.3 mm 6 m/s 741 mmHg 88%
    13:00 -6°C° 0.3 mm 6 m/s 740 mmHg 87%
    14:00 -6°C° 0.2 mm 6 m/s 740 mmHg 88%
    15:00 -5°C° 0.2 mm 6 m/s 740 mmHg 88%
    16:00 -5°C° 0.2 mm 6 m/s 739 mmHg 89%
    17:00 -6°C° 0.1 mm 6 m/s 739 mmHg 86%
    18:00 -6°C° 0.1 mm 6 m/s 740 mmHg 83%
    19:00 -8°C° 0.1 mm 6 m/s 740 mmHg 80%
    20:00 -9°C° 0 mm 6 m/s 740 mmHg 81%
    21:00 -9°C° 0 mm 6 m/s 740 mmHg 83%
    22:00 -10°C° 0 mm 6 m/s 740 mmHg 84%
    23:00 -10°C° 0 mm 5 m/s 740 mmHg 85%

    Après-demain, 22 Novembre, Jeudi

    Heure Température Précipitation Vent Pression Humidité
    00:00 -11°C° 0 mm 5 m/s 740 mmHg 86%
    01:00 -11°C° 0 mm 5 m/s 740 mmHg 86%
    02:00 -11°C° 0 mm 5 m/s 740 mmHg 88%
    03:00 -11°C° 0 mm 5 m/s 740 mmHg 90%
    04:00 -11°C° 0 mm 4 m/s 740 mmHg 92%
    05:00 -11°C° 0.1 mm 5 m/s 740 mmHg 91%
    06:00 -11°C° 0.1 mm 5 m/s 740 mmHg 90%
    07:00 -10°C° 0.1 mm 5 m/s 740 mmHg 89%
    08:00 -10°C° 0 mm 5 m/s 740 mmHg 89%
    09:00 -10°C° 0 mm 5 m/s 740 mmHg 89%
    10:00 -9°C° 0 mm 4 m/s 740 mmHg 89%
    11:00 -9°C° 0 mm 4 m/s 740 mmHg 88%
    12:00 -9°C° 0 mm 4 m/s 739 mmHg 87%
    13:00 -9°C° 0 mm 4 m/s 739 mmHg 86%
    14:00 -8°C° 0.2 mm 3 m/s 739 mmHg 88%
    15:00 -7°C° 0.2 mm 3 m/s 738 mmHg 91%
    16:00 -7°C° 0.2 mm 3 m/s 738 mmHg 93%
    17:00 -8°C° 0.4 mm 4 m/s 737 mmHg 92%
    18:00 -8°C° 0.4 mm 5 m/s 736 mmHg 92%
    19:00 -7°C° 0.4 mm 5 m/s 736 mmHg 92%
    20:00 -8°C° 0.4 mm 6 m/s 735 mmHg 91%
    21:00 -8°C° 0.4 mm 6 m/s 734 mmHg 91%
    22:00 -8°C° 0.4 mm 7 m/s 733 mmHg 91%
    23:00 -8°C° 0.3 mm 6 m/s 733 mmHg 91%

    23 Novembre, Vendredi

    Heure Température Précipitation Vent Pression Humidité
    00:00 -8°C° 0.3 mm 6 m/s 732 mmHg 91%
    01:00 -8°C° 0.3 mm 6 m/s 732 mmHg 92%
    02:00 -8°C° 0.3 mm 6 m/s 732 mmHg 92%
    03:00 -7°C° 0.3 mm 5 m/s 732 mmHg 92%
    04:00 -7°C° 0.3 mm 5 m/s 731 mmHg 92%
    05:00 -7°C° 0 mm 5 m/s 732 mmHg 93%
    06:00 -8°C° 0 mm 4 m/s 732 mmHg 94%
    07:00 -8°C° 0 mm 3 m/s 732 mmHg 95%
    08:00 -9°C° 0 mm 4 m/s 733 mmHg 93%
    09:00 -11°C° 0 mm 5 m/s 734 mmHg 92%
    10:00 -12°C° 0 mm 6 m/s 735 mmHg 90%
    11:00 -12°C° 0 mm 6 m/s 736 mmHg 88%
    12:00 -12°C° 0 mm 6 m/s 737 mmHg 86%
    13:00 -12°C° 0 mm 6 m/s 738 mmHg 83%
    14:00 -13°C° 0 mm 5 m/s 739 mmHg 83%
    15:00 -13°C° 0 mm 5 m/s 739 mmHg 84%
    16:00 -14°C° 0 mm 5 m/s 740 mmHg 84%
    17:00 -14°C° 0 mm 5 m/s 741 mmHg 86%
    18:00 -14°C° 0 mm 5 m/s 742 mmHg 87%
    19:00 -14°C° 0 mm 5 m/s 743 mmHg 89%
    20:00 -14°C° 0 mm 5 m/s 743 mmHg 90%
    21:00 -15°C° 0 mm 4 m/s 743 mmHg 91%
    22:00 -16°C° 0 mm 4 m/s 744 mmHg 93%
    23:00 -15°C° 0 mm 4 m/s 744 mmHg 93%

    24 Novembre, Samedi

    Heure Température Précipitation Vent Pression Humidité
    00:00 -15°C° 0 mm 4 m/s 744 mmHg 93%
    01:00 -15°C° 0 mm 5 m/s 744 mmHg 93%
    02:00 -14°C° 0.1 mm 5 m/s 744 mmHg 92%
    03:00 -14°C° 0.1 mm 6 m/s 744 mmHg 92%
    04:00 -12°C° 0.1 mm 6 m/s 744 mmHg 91%
    05:00 -12°C° 0.1 mm 6 m/s 744 mmHg 91%
    06:00 -11°C° 0.1 mm 6 m/s 744 mmHg 90%
    07:00 -11°C° 0.1 mm 6 m/s 744 mmHg 90%
    08:00 -11°C° 0.1 mm 6 m/s 745 mmHg 90%
    09:00 -11°C° 0.1 mm 6 m/s 745 mmHg 91%
    10:00 -10°C° 0.1 mm 6 m/s 745 mmHg 91%
    11:00 -10°C° 0.1 mm 6 m/s 745 mmHg 90%
    12:00 -9°C° 0.1 mm 7 m/s 745 mmHg 90%
    13:00 -9°C° 0.1 mm 7 m/s 745 mmHg 89%
    14:00 -8°C° 0.1 mm 7 m/s 745 mmHg 89%
    15:00 -8°C° 0.1 mm 7 m/s 745 mmHg 89%
    16:00 -8°C° 0.1 mm 8 m/s 745 mmHg 89%
    17:00 -8°C° 0.1 mm 8 m/s 745 mmHg 88%
    18:00 -8°C° 0.1 mm 8 m/s 745 mmHg 88%
    19:00 -8°C° 0.1 mm 8 m/s 745 mmHg 87%
    20:00 -8°C° 0.1 mm 8 m/s 745 mmHg 87%
    21:00 -8°C° 0.1 mm 7 m/s 745 mmHg 87%
    22:00 -8°C° 0.1 mm 7 m/s 745 mmHg 88%
    23:00 -8°C° 0 mm 7 m/s 745 mmHg 88%

    25 Novembre, Dimanche

    Heure Température Précipitation Vent Pression Humidité
    00:00 -8°C° 0 mm 7 m/s 745 mmHg 88%
    01:00 -8°C° 0 mm 7 m/s 745 mmHg 88%
    02:00 -8°C° 0 mm 7 m/s 745 mmHg 88%
    03:00 -8°C° 0 mm 7 m/s 745 mmHg 88%
    04:00 -8°C° 0 mm 7 m/s 745 mmHg 88%
    05:00 -8°C° 0.1 mm 7 m/s 745 mmHg 88%
    06:00 -7°C° 0.1 mm 7 m/s 744 mmHg 88%
    07:00 -7°C° 0.1 mm 7 m/s 744 mmHg 88%
    08:00 -7°C° 0.1 mm 7 m/s 744 mmHg 88%
    09:00 -7°C° 0.1 mm 7 m/s 744 mmHg 88%
    10:00 -7°C° 0.1 mm 7 m/s 744 mmHg 87%
    11:00 -7°C° 0.1 mm 7 m/s 744 mmHg 87%
    12:00 -7°C° 0.1 mm 7 m/s 744 mmHg 87%
    13:00 -7°C° 0.1 mm 7 m/s 744 mmHg 86%
    14:00 -7°C° 0.1 mm 7 m/s 744 mmHg 87%
    15:00 -6°C° 0.1 mm 6 m/s 744 mmHg 87%
    16:00 -6°C° 0.1 mm 6 m/s 745 mmHg 88%
    17:00 -6°C° 0 mm 5 m/s 745 mmHg 89%
    18:00 -6°C° 0 mm 5 m/s 746 mmHg 90%
    19:00 -7°C° 0 mm 5 m/s 746 mmHg 91%
    20:00 -7°C° 0 mm 4 m/s 747 mmHg 92%
    21:00 -7°C° 0 mm 4 m/s 747 mmHg 93%
    22:00 -7°C° 0 mm 4 m/s 747 mmHg 93%
    23:00 -6°C° 0 mm 3 m/s 748 mmHg 94%
    Voir plus